^^

..:: Storico WU ::..




Lo storico viene creato da WUnderground con i dati che la stazione Meteomincio invia al loro server. L' aggiornamento viene fatto ogni 5 minuti circa, tuttavia possono esserci intervalli pił ampi a causa di errori, interruzioni di servizio o problemi nell' invio tramite FTP.


Storico stazione MeteoMincio
Giorno Sommario per Gennaio 10, 2022 Unità:  Inglese    Metrico   Entrambi
Giorno Settimana Mese Anno
  Max: Min: Media:
Temperatura: 41 °F 26.6 °F 32.5 °F
Dew Point: 37.4 °F 26.6 °F 30.7 °F
Umidità: 98% 83% 93%
Velocità vento: 8.7mph 0mph 4.3mph
Raffica: 11.8mph - -
Direzione- - West
Pressione: 30.1 in 29.8 in -
Precipitazioni: 0.01 in    
 
 
Tabulato Dati per Gennaio 10, 2022
Ora Temperatura Dew Point Pressione Direzione Velocità vento Raffica Umidità Intensità pioggia (oraria) Info solare Situazione
00:04 30.2 °F 30.2 °F 29.8 in WSW 1.2 mph 2.5 mph 98% 0 in 0.00 W/m2 unknown
00:09 30.2 °F 30.2 °F 29.8 in WSW 1.2 mph 2.5 mph 98% 0 in 0.00 W/m2 unknown
00:14 30.2 °F 30.2 °F 29.8 in WSW 1.2 mph 2.5 mph 98% 0 in 0.00 W/m2 unknown
00:19 30.2 °F 30.2 °F 29.8 in WSW 0.6 mph 1.2 mph 98% 0 in 0.00 W/m2 unknown
00:24 30.2 °F 30.2 °F 29.8 in WSW 1.2 mph 1.2 mph 98% 0 in 0.00 W/m2 unknown
00:29 30.2 °F 30.2 °F 29.8 in Calm     98% 0 in 0.00 W/m2 unknown
00:34 30.2 °F 30.2 °F 29.8 in Calm     98% 0 in 0.00 W/m2 unknown
00:39 30.2 °F 30.2 °F 29.8 in WSW 0.6 mph 3.1 mph 98% 0 in 0.00 W/m2 unknown
00:44 30.2 °F 30.2 °F 29.8 in WSW 2.5 mph 3.7 mph 98% 0 in 0.00 W/m2 unknown
00:49 30.2 °F 30.2 °F 29.8 in West 2.5 mph 3.7 mph 98% 0 in 0.00 W/m2 unknown
00:54 30.2 °F 30.2 °F 29.8 in West 3.7 mph 5 mph 98% 0 in 0.00 W/m2 unknown
00:59 32 °F 30.2 °F 29.8 in WNW 3.1 mph 5 mph 98% 0 in 0.00 W/m2 unknown
01:04 32 °F 30.2 °F 29.8 in West 3.1 mph 5 mph 98% 0 in 0.00 W/m2 unknown
01:09 32 °F 32 °F 29.8 in West 3.1 mph 5 mph 98% 0 in 0.00 W/m2 unknown
01:14 32 °F 32 °F 29.8 in WNW 3.1 mph 3.7 mph 98% 0 in 0.00 W/m2 unknown
01:19 32 °F 32 °F 29.8 in WNW 3.1 mph 3.7 mph 98% 0 in 0.00 W/m2 unknown
01:24 32 °F 32 °F 29.8 in WNW 3.7 mph 5 mph 98% 0 in 0.00 W/m2 unknown
01:29 32 °F 32 °F 29.8 in WNW 5 mph 6.2 mph 98% 0 in 0.00 W/m2 unknown
01:34 32 °F 32 °F 29.8 in WNW 5 mph 6.2 mph 98% 0 in 0.00 W/m2 unknown
01:39 32 °F 32 °F 29.8 in WNW 3.1 mph 5 mph 98% 0 in 0.00 W/m2 unknown
01:44 32 °F 30.2 °F 29.8 in WNW 3.1 mph 5 mph 97% 0 in 0.00 W/m2 unknown
01:49 32 °F 30.2 °F 29.8 in WNW 3.1 mph 3.7 mph 97% 0 in 0.00 W/m2 unknown
01:54 32 °F 30.2 °F 29.8 in WNW 3.1 mph 3.7 mph 97% 0 in 0.00 W/m2 unknown
01:59 32 °F 30.2 °F 29.8 in WNW 3.1 mph 3.7 mph 97% 0 in 0.00 W/m2 unknown
02:04 32 °F 30.2 °F 29.8 in WNW 2.5 mph 3.7 mph 97% 0 in 0.00 W/m2 unknown
02:09 32 °F 30.2 °F 29.8 in WNW 3.1 mph 3.7 mph 97% 0 in 0.00 W/m2 unknown
02:14 32 °F 30.2 °F 29.8 in NW 4.3 mph 6.2 mph 97% 0 in 0.00 W/m2 unknown
02:19 32 °F 30.2 °F 29.8 in NW 5 mph 6.2 mph 97% 0 in 0.00 W/m2 unknown
02:24 32 °F 30.2 °F 29.8 in NW 5.6 mph 6.8 mph 97% 0 in 0.00 W/m2 unknown
02:29 32 °F 32 °F 29.8 in NW 5 mph 6.8 mph 98% 0 in 0.00 W/m2 unknown
02:34 32 °F 32 °F 29.8 in NW 5 mph 6.8 mph 98% 0 in 0.00 W/m2 unknown
02:39 32 °F 32 °F 29.8 in NW 5.6 mph 8.1 mph 98% 0 in 0.00 W/m2 unknown
02:44 32 °F 32 °F 29.8 in WNW 6.2 mph 8.1 mph 98% 0 in 0.00 W/m2 unknown
02:49 32 °F 32 °F 29.8 in WNW 6.2 mph 8.1 mph 97% 0 in 0.00 W/m2 unknown
02:54 32 °F 32 °F 29.8 in WNW 5 mph 8.1 mph 97% 0 in 0.00 W/m2 unknown
02:59 32 °F 32 °F 29.8 in WNW 3.1 mph 6.8 mph 97% 0 in 0.00 W/m2 unknown
03:04 32 °F 32 °F 29.8 in WNW 3.1 mph 3.7 mph 97% 0 in 0.00 W/m2 unknown
03:09 32 °F 32 °F 29.8 in WNW 3.1 mph 3.7 mph 96% 0 in 0.00 W/m2 unknown
03:14 32 °F 32 °F 29.8 in WNW 3.7 mph 5 mph 97% 0 in 0.00 W/m2 unknown
03:19 32 °F 32 °F 29.8 in WNW 3.1 mph 5 mph 97% 0 in 0.00 W/m2 unknown
03:24 32 °F 32 °F 29.8 in WNW 2.5 mph 3.7 mph 97% 0 in 0.00 W/m2 unknown
03:29 32 °F 32 °F 29.8 in WNW 2.5 mph 3.7 mph 97% 0 in 0.00 W/m2 unknown
03:34 32 °F 30.2 °F 29.8 in WNW 3.1 mph 3.7 mph 96% 0 in 0.00 W/m2 unknown
03:39 32 °F 30.2 °F 29.8 in WNW 3.7 mph 3.7 mph 96% 0 in 0.00 W/m2 unknown
03:44 32 °F 30.2 °F 29.8 in WNW 4.3 mph 6.2 mph 96% 0 in 0.00 W/m2 unknown
03:49 32 °F 30.2 °F 29.8 in West 3.1 mph 6.2 mph 97% 0 in 0.00 W/m2 unknown
03:54 32 °F 30.2 °F 29.8 in West 3.1 mph 3.7 mph 96% 0 in 0.00 W/m2 unknown
03:59 30.2 °F 30.2 °F 29.8 in West 3.1 mph 5 mph 96% 0 in 0.00 W/m2 unknown
04:04 30.2 °F 28.4 °F 29.8 in West 3.7 mph 5 mph 96% 0 in 0.00 W/m2 unknown
04:09 30.2 °F 30.2 °F 29.8 in West 4.3 mph 6.2 mph 97% 0 in 0.00 W/m2 unknown
04:14 32 °F 30.2 °F 29.8 in WNW 4.3 mph 6.2 mph 97% 0 in 0.00 W/m2 unknown
04:19 32 °F 30.2 °F 29.8 in West 5 mph 6.2 mph 97% 0 in 0.00 W/m2 unknown
04:24 32 °F 30.2 °F 29.8 in West 4.3 mph 6.2 mph 97% 0 in 0.00 W/m2 unknown
04:29 30.2 °F 30.2 °F 29.8 in West 4.3 mph 6.2 mph 96% 0 in 0.00 W/m2 unknown
04:34 30.2 °F 28.4 °F 29.8 in West 3.7 mph 6.2 mph 96% 0 in 0.00 W/m2 unknown
04:39 30.2 °F 28.4 °F 29.8 in West 3.7 mph 5 mph 96% 0 in 0.00 W/m2 unknown
04:44 28.4 °F 28.4 °F 29.8 in West 3.7 mph 5 mph 96% 0 in 0.00 W/m2 unknown
04:49 28.4 °F 28.4 °F 29.8 in West 3.7 mph 5 mph 96% 0 in 0.00 W/m2 unknown
04:54 30.2 °F 28.4 °F 29.8 in West 4.3 mph 6.2 mph 96% 0 in 0.00 W/m2 unknown
04:59 30.2 °F 28.4 °F 29.8 in West 5 mph 6.2 mph 96% 0 in 0.00 W/m2 unknown
05:04 30.2 °F 28.4 °F 29.8 in West 4.3 mph 6.2 mph 96% 0 in 0.00 W/m2 unknown
05:09 30.2 °F 28.4 °F 29.8 in West 4.3 mph 6.2 mph 96% 0 in 0.00 W/m2 unknown
05:14 30.2 °F 28.4 °F 29.8 in WNW 4.3 mph 6.8 mph 96% 0 in 0.00 W/m2 unknown
05:19 30.2 °F 30.2 °F 29.8 in WNW 6.2 mph 8.1 mph 96% 0 in 0.00 W/m2 unknown
05:24 30.2 °F 30.2 °F 29.8 in WNW 6.2 mph 8.1 mph 96% 0 in 0.00 W/m2 unknown
05:29 30.2 °F 28.4 °F 29.8 in WNW 5 mph 6.2 mph 94% 0 in 0.00 W/m2 unknown
05:34 30.2 °F 28.4 °F 29.8 in WNW 5 mph 6.2 mph 94% 0 in 0.00 W/m2 unknown
05:39 30.2 °F 28.4 °F 29.8 in WNW 5 mph 6.2 mph 93% 0 in 0.00 W/m2 unknown
05:44 30.2 °F 28.4 °F 29.8 in West 3.7 mph 6.2 mph 92% 0 in 0.00 W/m2 unknown
05:49 30.2 °F 28.4 °F 29.8 in West 3.1 mph 5 mph 92% 0 in 0.00 W/m2 unknown
05:54 30.2 °F 28.4 °F 29.8 in West 3.1 mph 3.7 mph 92% 0 in 0.00 W/m2 unknown
05:59 30.2 °F 28.4 °F 29.8 in West 2.5 mph 3.7 mph 92% 0 in 0.00 W/m2 unknown
06:04 30.2 °F 28.4 °F 29.8 in WNW 2.5 mph 3.7 mph 92% 0 in 0.00 W/m2 unknown
06:09 30.2 °F 28.4 °F 29.8 in WNW 3.7 mph 4.3 mph 93% 0 in 0.00 W/m2 unknown
06:14 30.2 °F 28.4 °F 29.8 in WNW 4.3 mph 5 mph 93% 0 in 0.00 W/m2 unknown
06:19 30.2 °F 28.4 °F 29.8 in WNW 4.3 mph 5 mph 92% 0 in 0.00 W/m2 unknown
06:24 30.2 °F 28.4 °F 29.8 in West 3.1 mph 5 mph 92% 0 in 0.00 W/m2 unknown
06:29 30.2 °F 28.4 °F 29.8 in West 2.5 mph 3.1 mph 92% 0 in 0.00 W/m2 unknown
06:34 28.4 °F 26.6 °F 29.8 in West 2.5 mph 3.7 mph 92% 0 in 0.00 W/m2 unknown
06:39 28.4 °F 26.6 °F 29.8 in WNW 3.1 mph 3.7 mph 93% 0 in 0.00 W/m2 unknown
06:44 28.4 °F 26.6 °F 29.8 in WNW 3.7 mph 3.7 mph 93% 0 in 0.00 W/m2 unknown
06:49 30.2 °F 28.4 °F 29.8 in WNW 4.3 mph 6.2 mph 93% 0 in 0.00 W/m2 unknown
06:54 30.2 °F 28.4 °F 29.8 in WNW 5 mph 6.2 mph 92% 0 in 0.00 W/m2 unknown
06:59 30.2 °F 28.4 °F 29.8 in WNW 3.7 mph 5 mph 90% 0 in 0.00 W/m2 unknown
07:04 30.2 °F 28.4 °F 29.8 in WNW 3.7 mph 5 mph 89% 0 in 0.00 W/m2 unknown
07:09 30.2 °F 28.4 °F 29.8 in WNW 4.3 mph 6.2 mph 89% 0 in 0.00 W/m2 unknown
07:14 30.2 °F 26.6 °F 29.8 in WNW 5 mph 6.2 mph 88% 0 in 0.00 W/m2 unknown
07:19 30.2 °F 26.6 °F 29.8 in WNW 5 mph 6.2 mph 89% 0 in 0.00 W/m2 unknown
07:24 30.2 °F 26.6 °F 29.8 in West 5 mph 6.2 mph 89% 0 in 0.00 W/m2 unknown
07:29 30.2 °F 26.6 °F 29.8 in West 5 mph 5 mph 89% 0 in 0.00 W/m2 unknown
07:34 30.2 °F 26.6 °F 29.8 in West 3.7 mph 5 mph 90% 0 in 0.00 W/m2 unknown
07:39 30.2 °F 26.6 °F 29.8 in West 3.7 mph 5 mph 91% 0 in 0.00 W/m2 unknown
07:44 30.2 °F 26.6 °F 29.8 in West 3.7 mph 5 mph 91% 0 in 0.00 W/m2 unknown
07:49 30.2 °F 28.4 °F 29.8 in WSW 4.3 mph 6.2 mph 91% 0 in 0.00 W/m2 unknown
07:54 30.2 °F 28.4 °F 29.8 in SW 5 mph 6.8 mph 90% 0 in 0.00 W/m2 unknown
07:59 30.2 °F 28.4 °F 29.8 in SSW 4.3 mph 6.8 mph 89% 0 in 0.00 W/m2 unknown
08:04 30.2 °F 28.4 °F 29.8 in SSW 4.3 mph 6.2 mph 90% 0 in 0.00 W/m2 unknown
08:09 30.2 °F 28.4 °F 29.8 in SSW 5.6 mph 6.8 mph 90% 0 in 0.00 W/m2 unknown
08:14 30.2 °F 28.4 °F 29.8 in SW 5.6 mph 6.8 mph 91% 0 in 5.00 W/m2 unknown
08:19 30.2 °F 28.4 °F 29.8 in SW 5 mph 6.8 mph 91% 0 in 5.00 W/m2 unknown
08:24 30.2 °F 28.4 °F 29.8 in WSW 6.2 mph 8.1 mph 92% 0 in 7.00 W/m2 unknown
08:29 30.2 °F 28.4 °F 29.8 in SW 5 mph 8.1 mph 92% 0 in 7.00 W/m2 unknown
08:34 30.2 °F 28.4 °F 29.8 in SW 5 mph 6.8 mph 92% 0 in 9.00 W/m2 unknown
08:39 30.2 °F 28.4 °F 29.8 in SW 4.3 mph 6.2 mph 93% 0 in 12.00 W/m2 unknown
08:44 30.2 °F 28.4 °F 29.8 in SW 5 mph 6.2 mph 93% 0 in 14.00 W/m2 unknown
08:49 30.2 °F 28.4 °F 29.8 in SW 4.3 mph 6.2 mph 93% 0 in 16.00 W/m2 unknown
08:54 30.2 °F 28.4 °F 29.8 in WSW 6.2 mph 8.1 mph 93% 0 in 18.00 W/m2 unknown
08:59 30.2 °F 28.4 °F 29.8 in WSW 6.8 mph 8.1 mph 93% 0 in 21.00 W/m2 unknown
09:04 30.2 °F 28.4 °F 29.8 in WSW 5.6 mph 8.1 mph 93% 0 in 23.00 W/m2 unknown
09:09 30.2 °F 28.4 °F 29.9 in WSW 5.6 mph 8.1 mph 93% 0 in 26.00 W/m2 unknown
09:14 30.2 °F 28.4 °F 29.9 in WSW 6.2 mph 9.3 mph 93% 0 in 30.00 W/m2 unknown
09:19 30.2 °F 28.4 °F 29.9 in WSW 5 mph 8.7 mph 94% 0 in 33.00 W/m2 unknown
09:24 30.2 °F 28.4 °F 29.9 in SW 5 mph 6.8 mph 94% 0 in 37.00 W/m2 unknown
09:29 30.2 °F 28.4 °F 29.9 in SW 5.6 mph 8.1 mph 93% 0 in 44.00 W/m2 unknown
09:34 30.2 °F 28.4 °F 29.9 in WSW 6.8 mph 9.3 mph 93% 0 in 47.00 W/m2 unknown
09:39 30.2 °F 28.4 °F 29.9 in WSW 6.2 mph 8.7 mph 93% 0 in 49.00 W/m2 unknown
09:44 30.2 °F 28.4 °F 29.9 in WSW 8.7 mph 11.8 mph 94% 0 in 54.00 W/m2 unknown
09:49 30.2 °F 28.4 °F 29.9 in West 8.7 mph 11.8 mph 93% 0 in 62.00 W/m2 unknown
09:54 30.2 °F 28.4 °F 29.9 in West 8.1 mph 11.8 mph 94% 0 in 69.00 W/m2 unknown
09:59 30.2 °F 28.4 °F 29.9 in West 7.5 mph 10.6 mph 94% 0 in 77.00 W/m2 unknown
10:04 30.2 °F 28.4 °F 29.9 in West 8.1 mph 10.6 mph 94% 0 in 90.00 W/m2 unknown
10:09 30.2 °F 28.4 °F 29.9 in West 8.1 mph 11.2 mph 94% 0 in 100.00 W/m2 unknown
10:14 30.2 °F 28.4 °F 29.9 in West 7.5 mph 11.2 mph 93% 0 in 118.00 W/m2 unknown
10:19 30.2 °F 28.4 °F 29.9 in West 7.5 mph 11.8 mph 93% 0 in 137.00 W/m2 unknown
10:24 32 °F 28.4 °F 29.9 in West 6.8 mph 11.8 mph 93% 0 in 149.00 W/m2 unknown
10:29 32 °F 30.2 °F 29.9 in WNW 6.8 mph 9.9 mph 93% 0 in 200.00 W/m2 unknown
10:34 32 °F 30.2 °F 29.9 in WNW 3.1 mph 8.1 mph 92% 0 in 200.00 W/m2 unknown
10:39 32 °F 30.2 °F 29.9 in WNW 5 mph 6.2 mph 91% 0 in 216.00 W/m2 unknown
10:44 32 °F 30.2 °F 29.9 in WNW 5 mph 6.2 mph 91% 0 in 214.00 W/m2 unknown
10:49 32 °F 30.2 °F 29.9 in West 5 mph 6.2 mph 91% 0 in 171.00 W/m2 unknown
10:54 32 °F 30.2 °F 29.9 in WNW 6.2 mph 8.1 mph 91% 0 in 274.00 W/m2 unknown
10:59 32 °F 30.2 °F 29.9 in WNW 6.2 mph 8.1 mph 90% 0 in 274.00 W/m2 unknown
11:04 33.8 °F 30.2 °F 29.9 in West 6.2 mph 8.1 mph 90% 0 in 214.00 W/m2 unknown
11:09 33.8 °F 30.2 °F 29.9 in WNW 6.2 mph 8.1 mph 90% 0 in 207.00 W/m2 unknown
11:14 33.8 °F 32 °F 29.9 in WNW 6.8 mph 9.3 mph 96% 0 in 244.00 W/m2 unknown
11:19 33.8 °F 30.2 °F 29.9 in WNW 6.2 mph 8.1 mph 90% 0 in 306.00 W/m2 unknown
11:24 33.8 °F 30.2 °F 29.9 in WNW 6.8 mph 8.7 mph 89% 0 in 357.00 W/m2 unknown
11:29 35.6 °F 32 °F 29.9 in WNW 7.5 mph 9.3 mph 88% 0 in 392.00 W/m2 unknown
11:34 35.6 °F 32 °F 29.9 in WNW 6.8 mph 8.7 mph 87% 0 in 392.00 W/m2 unknown
11:39 35.6 °F 32 °F 29.9 in West 5 mph 8.1 mph 88% 0 in 272.00 W/m2 unknown
11:44 35.6 °F 32 °F 29.9 in West 6.2 mph 8.1 mph 89% 0 in 241.00 W/m2 unknown
11:49 35.6 °F 32 °F 29.9 in West 6.2 mph 8.1 mph 87% 0 in 260.00 W/m2 unknown
11:54 35.6 °F 32 °F 29.9 in WNW 6.2 mph 8.1 mph 87% 0 in 265.00 W/m2 unknown
11:59 35.6 °F 32 °F 29.9 in West 6.2 mph 8.1 mph 87% 0 in 246.00 W/m2 unknown
12:04 35.6 °F 32 °F 29.9 in West 5 mph 6.8 mph 86% 0 in 292.00 W/m2 unknown
12:09 35.6 °F 32 °F 29.9 in WNW 3.7 mph 6.2 mph 87% 0 in 262.00 W/m2 unknown
12:14 37.4 °F 32 °F 29.9 in WNW 3.1 mph 5 mph 86% 0 in 292.00 W/m2 unknown
12:19 37.4 °F 33.8 °F 29.9 in WNW 3.1 mph 5 mph 86% 0 in 274.00 W/m2 unknown
12:24 37.4 °F 33.8 °F 29.9 in WNW 3.7 mph 5 mph 86% 0 in 274.00 W/m2 unknown
12:29 37.4 °F 33.8 °F 29.9 in West 3.1 mph 5 mph 86% 0 in 269.00 W/m2 unknown
12:34 37.4 °F 33.8 °F 29.9 in West 3.1 mph 3.7 mph 85% 0 in 267.00 W/m2 unknown
12:39 37.4 °F 33.8 °F 29.9 in WSW 3.1 mph 3.7 mph 85% 0 in 246.00 W/m2 unknown
12:44 39.2 °F 33.8 °F 29.9 in WSW 3.1 mph 3.7 mph 84% 0 in 237.00 W/m2 unknown
12:49 39.2 °F 33.8 °F 29.9 in West 2.5 mph 3.7 mph 84% 0 in 251.00 W/m2 unknown
12:54 39.2 °F 33.8 °F 29.9 in WSW 3.1 mph 3.7 mph 83% 0 in 227.00 W/m2 unknown
12:59 39.2 °F 35.6 °F 29.9 in WSW 2.5 mph 3.7 mph 84% 0 in 195.00 W/m2 unknown
13:04 39.2 °F 35.6 °F 29.9 in SW 2.5 mph 5 mph 84% 0 in 179.00 W/m2 unknown
13:09 39.2 °F 35.6 °F 29.9 in WSW 3.1 mph 5 mph 84% 0 in 179.00 W/m2 unknown
13:14 39.2 °F 35.6 °F 29.9 in WSW 2.5 mph 5 mph 83% 0 in 165.00 W/m2 unknown
13:19 39.2 °F 35.6 °F 29.9 in WSW 2.5 mph 3.7 mph 84% 0 in 156.00 W/m2 unknown
13:24 39.2 °F 35.6 °F 29.9 in WSW 3.1 mph 3.7 mph 84% 0 in 156.00 W/m2 unknown
13:29 39.2 °F 35.6 °F 29.9 in WSW 5 mph 6.2 mph 85% 0 in 156.00 W/m2 unknown
13:34 39.2 °F 35.6 °F 29.9 in WSW 4.3 mph 6.2 mph 85% 0 in 171.00 W/m2 unknown
13:39 39.2 °F 35.6 °F 29.9 in WSW 5.6 mph 6.8 mph 85% 0 in 169.00 W/m2 unknown
13:44 41 °F 35.6 °F 29.9 in WSW 6.2 mph 6.8 mph 86% 0 in 169.00 W/m2 unknown
13:49 41 °F 35.6 °F 29.9 in WSW 5.6 mph 6.8 mph 86% 0 in 158.00 W/m2 unknown
13:54 41 °F 35.6 °F 29.9 in WSW 5.6 mph 6.8 mph 86% 0 in 144.00 W/m2 unknown
13:59 41 °F 35.6 °F 29.9 in SW 5 mph 6.8 mph 85% 0 in 142.00 W/m2 unknown
14:04 41 °F 35.6 °F 29.9 in WSW 5 mph 6.2 mph 85% 0 in 151.00 W/m2 unknown
14:09 41 °F 35.6 °F 29.9 in WSW 5.6 mph 6.8 mph 85% 0 in 155.00 W/m2 unknown
14:14 41 °F 35.6 °F 29.9 in WSW 5 mph 6.8 mph 85% 0 in 155.00 W/m2 unknown
14:19 41 °F 37.4 °F 29.9 in WSW 5 mph 6.2 mph 86% 0 in 155.00 W/m2 unknown
14:24 41 °F 35.6 °F 29.9 in WSW 5 mph 6.2 mph 85% 0 in 153.00 W/m2 unknown
14:29 41 °F 35.6 °F 29.9 in WSW 5 mph 6.2 mph 85% 0 in 149.00 W/m2 unknown
14:34 41 °F 35.6 °F 29.9 in WSW 5 mph 6.2 mph 85% 0 in 142.00 W/m2 unknown
14:39 41 °F 37.4 °F 29.9 in WSW 5 mph 6.8 mph 85% 0 in 141.00 W/m2 unknown
14:44 41 °F 37.4 °F 29.9 in WSW 6.8 mph 8.1 mph 85% 0 in 137.00 W/m2 unknown
14:49 41 °F 37.4 °F 29.9 in WSW 5.6 mph 8.1 mph 85% 0 in 132.00 W/m2 unknown
14:54 41 °F 37.4 °F 29.9 in WSW 5.6 mph 8.1 mph 85% 0 in 123.00 W/m2 unknown
14:59 41 °F 35.6 °F 29.9 in WSW 5.6 mph 8.1 mph 86% 0 in 123.00 W/m2 unknown
15:04 41 °F 35.6 °F 29.9 in WSW 6.2 mph 8.1 mph 86% 0.01 in 114.00 W/m2 unknown
15:09 39.2 °F 37.4 °F 29.9 in WSW 6.2 mph 8.1 mph 88% 0.01 in 107.00 W/m2 unknown
15:14 39.2 °F 37.4 °F 29.9 in WSW 5.6 mph 6.8 mph 88% 0.01 in 100.00 W/m2 unknown
15:19 39.2 °F 35.6 °F 29.9 in WSW 4.3 mph 6.8 mph 89% 0.01 in 95.00 W/m2 unknown
15:24 39.2 °F 35.6 °F 29.9 in WSW 5.6 mph 6.8 mph 89% 0.01 in 107.00 W/m2 unknown
15:29 39.2 °F 35.6 °F 29.9 in WSW 5.6 mph 6.8 mph 89% 0.01 in 46.00 W/m2 unknown
15:34 37.4 °F 35.6 °F 29.9 in WSW 5 mph 6.8 mph 89% 0.01 in 100.00 W/m2 unknown
15:39 37.4 °F 35.6 °F 29.9 in SW 5 mph 6.8 mph 90% 0.01 in 40.00 W/m2 unknown
15:44 37.4 °F 35.6 °F 29.9 in WSW 3.7 mph 6.8 mph 90% 0.01 in 77.00 W/m2 unknown
15:49 37.4 °F 35.6 °F 29.9 in WSW 5.6 mph 6.2 mph 90% 0.01 in 53.00 W/m2 unknown
15:54 37.4 °F 35.6 °F 29.9 in WSW 6.2 mph 6.8 mph 91% 0.01 in 49.00 W/m2 unknown
15:59 37.4 °F 35.6 °F 29.9 in WSW 6.2 mph 8.1 mph 91% 0.01 in 37.00 W/m2 unknown
16:04 37.4 °F 35.6 °F 29.9 in WSW 6.2 mph 8.1 mph 91% 0.01 in 30.00 W/m2 unknown
16:09 37.4 °F 35.6 °F 29.9 in WSW 5 mph 6.2 mph 91% 0 in 28.00 W/m2 unknown
16:14 37.4 °F 35.6 °F 29.9 in WSW 5 mph 6.8 mph 91% 0 in 23.00 W/m2 unknown
16:19 37.4 °F 33.8 °F 29.9 in WSW 5 mph 6.8 mph 92% 0 in 23.00 W/m2 unknown
16:24 35.6 °F 33.8 °F 29.9 in WSW 5.6 mph 6.8 mph 92% 0 in 21.00 W/m2 unknown
16:29 35.6 °F 33.8 °F 29.9 in WSW 4.3 mph 6.8 mph 92% 0 in 19.00 W/m2 unknown
16:34 35.6 °F 33.8 °F 29.9 in West 4.3 mph 6.2 mph 93% 0 in 14.00 W/m2 unknown
16:39 35.6 °F 33.8 °F 29.9 in West 3.7 mph 6.2 mph 93% 0 in 11.00 W/m2 unknown
16:44 35.6 °F 33.8 °F 29.9 in West 5.6 mph 8.1 mph 93% 0 in 11.00 W/m2 unknown
16:49 35.6 °F 33.8 °F 29.9 in WNW 6.2 mph 8.1 mph 92% 0 in 9.00 W/m2 unknown
16:54 35.6 °F 33.8 °F 29.9 in West 5 mph 6.8 mph 91% 0 in 5.00 W/m2 unknown
16:59 35.6 °F 33.8 °F 30 in WNW 3.7 mph 6.2 mph 91% 0 in 0.00 W/m2 unknown
17:04 35.6 °F 33.8 °F 30 in West 4.3 mph 6.8 mph 91% 0 in 0.00 W/m2 unknown
17:09 35.6 °F 33.8 °F 30 in WSW 4.3 mph 6.8 mph 91% 0 in 0.00 W/m2 unknown
17:14 35.6 °F 32 °F 30 in WSW 3.1 mph 5 mph 91% 0 in 0.00 W/m2 unknown
17:19 33.8 °F 32 °F 30 in WSW 3.1 mph 5 mph 92% 0 in 0.00 W/m2 unknown
17:24 33.8 °F 32 °F 30 in WSW 3.1 mph 3.7 mph 93% 0 in 0.00 W/m2 unknown
17:29 33.8 °F 32 °F 30 in WSW 3.7 mph 5 mph 93% 0 in 0.00 W/m2 unknown
17:34 33.8 °F 32 °F 30 in West 5 mph 6.2 mph 94% 0 in 0.00 W/m2 unknown
17:39 33.8 °F 32 °F 30 in WSW 5 mph 6.2 mph 94% 0 in 0.00 W/m2 unknown
17:44 33.8 °F 32 °F 30 in WSW 5 mph 6.2 mph 94% 0 in 0.00 W/m2 unknown
17:49 33.8 °F 32 °F 30 in WSW 5 mph 6.2 mph 94% 0 in 0.00 W/m2 unknown
17:54 32 °F 32 °F 30 in West 4.3 mph 6.2 mph 94% 0 in 0.00 W/m2 unknown
17:59 32 °F 32 °F 30 in WSW 4.3 mph 6.2 mph 94% 0 in 0.00 W/m2 unknown
18:04 32 °F 32 °F 30 in West 4.3 mph 6.2 mph 94% 0 in 0.00 W/m2 unknown
18:09 32 °F 32 °F 30 in West 4.3 mph 5 mph 94% 0 in 0.00 W/m2 unknown
18:14 32 °F 30.2 °F 30 in WSW 3.1 mph 5 mph 94% 0 in 0.00 W/m2 unknown
18:19 32 °F 30.2 °F 30 in WSW 3.1 mph 5 mph 94% 0 in 0.00 W/m2 unknown
18:24 32 °F 30.2 °F 30 in WSW 3.7 mph 5 mph 94% 0 in 0.00 W/m2 unknown
18:29 32 °F 30.2 °F 30 in West 3.1 mph 5 mph 95% 0 in 0.00 W/m2 unknown
18:34 32 °F 30.2 °F 30 in West 3.7 mph 5 mph 95% 0 in 0.00 W/m2 unknown
18:39 32 °F 30.2 °F 30 in West 4.3 mph 5 mph 95% 0 in 0.00 W/m2 unknown
18:44 32 °F 30.2 °F 30 in WSW 3.7 mph 5 mph 95% 0 in 0.00 W/m2 unknown
18:49 32 °F 30.2 °F 30 in WSW 3.7 mph 5 mph 95% 0 in 0.00 W/m2 unknown
18:54 32 °F 30.2 °F 30 in WSW 3.7 mph 5 mph 95% 0 in 0.00 W/m2 unknown
18:59 32 °F 30.2 °F 30 in WSW 3.7 mph 5 mph 95% 0 in 0.00 W/m2 unknown
19:04 32 °F 30.2 °F 30 in West 5 mph 5 mph 95% 0 in 0.00 W/m2 unknown
19:09 32 °F 30.2 °F 30 in West 5 mph 6.2 mph 95% 0 in 0.00 W/m2 unknown
19:14 32 °F 30.2 °F 30 in West 3.7 mph 5 mph 95% 0 in 0.00 W/m2 unknown
19:19 32 °F 30.2 °F 30 in West 5 mph 6.2 mph 95% 0 in 0.00 W/m2 unknown
19:24 32 °F 30.2 °F 30 in WSW 4.3 mph 6.2 mph 95% 0 in 0.00 W/m2 unknown
19:29 32 °F 30.2 °F 30 in WSW 3.7 mph 5 mph 95% 0 in 0.00 W/m2 unknown
19:34 32 °F 30.2 °F 30 in WSW 3.7 mph 5 mph 95% 0 in 0.00 W/m2 unknown
19:39 32 °F 30.2 °F 30 in WSW 3.7 mph 5 mph 95% 0 in 0.00 W/m2 unknown
19:44 32 °F 30.2 °F 30 in WSW 4.3 mph 5 mph 95% 0 in 0.00 W/m2 unknown
19:49 30.2 °F 30.2 °F 30 in WSW 4.3 mph 5 mph 95% 0 in 0.00 W/m2 unknown
19:54 30.2 °F 30.2 °F 30 in WSW 4.3 mph 6.2 mph 95% 0 in 0.00 W/m2 unknown
19:59 30.2 °F 30.2 °F 30 in West 5 mph 6.2 mph 96% 0 in 0.00 W/m2 unknown
20:04 30.2 °F 30.2 °F 30 in West 3.7 mph 5 mph 96% 0 in 0.00 W/m2 unknown
20:09 30.2 °F 30.2 °F 30 in West 3.7 mph 5 mph 96% 0 in 0.00 W/m2 unknown
20:14 32 °F 30.2 °F 30 in WNW 5 mph 6.8 mph 96% 0 in 0.00 W/m2 unknown
20:19 32 °F 30.2 °F 30 in WNW 5.6 mph 6.8 mph 96% 0 in 0.00 W/m2 unknown
20:24 32 °F 30.2 °F 30 in WNW 5.6 mph 6.8 mph 96% 0 in 0.00 W/m2 unknown
20:29 32 °F 30.2 °F 30 in WNW 6.2 mph 8.1 mph 95% 0 in 0.00 W/m2 unknown
20:34 32 °F 30.2 °F 30 in WNW 6.2 mph 8.1 mph 95% 0 in 0.00 W/m2 unknown
20:39 32 °F 30.2 °F 30 in WNW 5.6 mph 6.8 mph 95% 0 in 0.00 W/m2 unknown
20:44 32 °F 30.2 °F 30 in West 5 mph 6.8 mph 95% 0 in 0.00 W/m2 unknown
20:49 32 °F 30.2 °F 30 in West 2.5 mph 6.2 mph 95% 0 in 0.00 W/m2 unknown
20:54 32 °F 30.2 °F 30 in West 2.5 mph 3.7 mph 95% 0 in 0.00 W/m2 unknown
20:59 32 °F 30.2 °F 30 in WNW 2.5 mph 3.7 mph 95% 0 in 0.00 W/m2 unknown
21:04 32 °F 30.2 °F 30 in WNW 3.7 mph 5 mph 95% 0 in 0.00 W/m2 unknown
21:09 32 °F 30.2 °F 30 in WNW 3.7 mph 6.2 mph 95% 0 in 0.00 W/m2 unknown
21:14 32 °F 30.2 °F 30 in NW 2.5 mph 6.2 mph 95% 0 in 0.00 W/m2 unknown
21:19 30.2 °F 28.4 °F 30 in NW 1.9 mph 3.1 mph 95% 0 in 0.00 W/m2 unknown
21:24 30.2 °F 30.2 °F 30 in NW 1.9 mph 2.5 mph 95% 0 in 0.00 W/m2 unknown
21:29 30.2 °F 28.4 °F 30 in NW 1.9 mph 2.5 mph 95% 0 in 0.00 W/m2 unknown
21:34 30.2 °F 28.4 °F 30 in NW 2.5 mph 3.7 mph 95% 0 in 0.00 W/m2 unknown
21:39 30.2 °F 28.4 °F 30 in NW 2.5 mph 3.7 mph 95% 0 in 0.00 W/m2 unknown
21:44 30.2 °F 28.4 °F 30 in WNW 1.9 mph 3.7 mph 95% 0 in 0.00 W/m2 unknown
21:49 30.2 °F 28.4 °F 30 in SE 4.3 mph 6.2 mph 95% 0 in 0.00 W/m2 unknown
21:54 30.2 °F 28.4 °F 30 in ESE 3.1 mph 6.2 mph 95% 0 in 0.00 W/m2 unknown
21:59 30.2 °F 28.4 °F 30 in SE 1.9 mph 3.7 mph 95% 0 in 0.00 W/m2 unknown
22:04 30.2 °F 28.4 °F 30 in South 1.2 mph 3.1 mph 95% 0 in 0.00 W/m2 unknown
22:09 28.4 °F 28.4 °F 30 in SSW 2.5 mph 3.7 mph 95% 0 in 0.00 W/m2 unknown
22:14 28.4 °F 28.4 °F 30 in SW 3.1 mph 3.7 mph 95% 0 in 0.00 W/m2 unknown
22:19 28.4 °F 28.4 °F 30.1 in SW 3.1 mph 3.7 mph 95% 0 in 0.00 W/m2 unknown
22:24 28.4 °F 26.6 °F 30.1 in WSW 3.1 mph 3.7 mph 95% 0 in 0.00 W/m2 unknown
22:29 28.4 °F 26.6 °F 30.1 in WSW 3.1 mph 3.7 mph 95% 0 in 0.00 W/m2 unknown
22:34 28.4 °F 26.6 °F 30.1 in West 3.7 mph 5 mph 96% 0 in 0.00 W/m2 unknown
22:39 28.4 °F 26.6 °F 30.1 in West 3.7 mph 5 mph 96% 0 in 0.00 W/m2 unknown
22:44 28.4 °F 28.4 °F 30.1 in West 2.5 mph 5 mph 96% 0 in 0.00 W/m2 unknown
22:49 28.4 °F 28.4 °F 30.1 in West 3.7 mph 5 mph 96% 0 in 0.00 W/m2 unknown
22:54 28.4 °F 26.6 °F 30.1 in West 2.5 mph 5 mph 95% 0 in 0.00 W/m2 unknown
22:59 28.4 °F 26.6 °F 30.1 in West 4.3 mph 5 mph 95% 0 in 0.00 W/m2 unknown
23:04 28.4 °F 26.6 °F 30.1 in West 4.3 mph 5 mph 95% 0 in 0.00 W/m2 unknown
23:09 28.4 °F 26.6 °F 30.1 in West 3.1 mph 5 mph 95% 0 in 0.00 W/m2 unknown
23:14 28.4 °F 26.6 °F 30.1 in West 3.1 mph 5 mph 95% 0 in 0.00 W/m2 unknown
23:19 28.4 °F 26.6 °F 30.1 in West 3.7 mph 5 mph 95% 0 in 0.00 W/m2 unknown
23:24 28.4 °F 26.6 °F 30.1 in West 4.3 mph 5 mph 95% 0 in 0.00 W/m2 unknown
23:29 26.6 °F 26.6 °F 30.1 in WSW 3.7 mph 5 mph 95% 0 in 0.00 W/m2 unknown
23:34 26.6 °F 26.6 °F 30.1 in West 4.3 mph 5 mph 95% 0 in 0.00 W/m2 unknown
23:39 26.6 °F 26.6 °F 30.1 in West 4.3 mph 5 mph 95% 0 in 0.00 W/m2 unknown
23:44 28.4 °F 26.6 °F 30.1 in WSW 5 mph 5 mph 95% 0 in 0.00 W/m2 unknown
23:49 28.4 °F 26.6 °F 30.1 in West 4.3 mph 6.2 mph 95% 0 in 0.00 W/m2 unknown
23:54 28.4 °F 26.6 °F 30.1 in West 5 mph 6.2 mph 95% 0 in 0.00 W/m2 unknown
23:59 28.4 °F 26.6 °F 30.1 in West 3.7 mph 6.2 mph 95% 0 in 0.00 W/m2 unknown
Stazione Meteorologica MeteoMincio Rivalta s/M (MN)
Con i complimenti di Weather Underground - 2 mb



GLOSSARIO METEOROLOGICO
Pioggia
Precipitazione di gocce d'acqua di vario diametro, tra 0,5 e 7 mm. Le gocce di pioggia traggono origine dalle gocce di nube: quando quest'ultime diventano abbastanza grosse da poter cadere prendono il nome di gocce di pioggia. Una goccia di pioggia contiene circa centomila goccioline di nube e si forma per coalescenza fra gocce di nube piccole e più grosse. La pioggia minuta e persistente cade dagli altostrati che partono da quote molto basse. La pioggia intensa è prodotta dai nembostrati. Tanto più intensa è la pioggia, tanto è maggiore è lo sviluppo verticale della nube alla cui sommità sono presenti cristalli di ghiaccio. L'unità di misura adottata è il millimetro, che equivale ad un litro d'acqua per metro quadrato di superficie.
Share

Non seguire questo link o sarai bannato dal sito!